Location: Coopersdale
(40.3556°N, 78.9372°W)
Time: 19:25:34
(UTC+00:00)

Transit 4A - Pass Details

Date: 24 January 2021
Orbit: 866 x 978 km, 66.8° (Epoch: 26 February)

Event Time Altitude Azimuth Distance (km) Brightness Sun altitude
Rises 09:27:21 0° 329° (NNW) 3,617 - -35.0°
Reaches altitude 10° 09:29:55 10° 328° (NNW) 2,652 - -34.5°
Maximum altitude 09:36:05 79° 243° (WSW) 936 - -33.3°
Exits shadow 09:39:21 28° 161° (SSE) 1,610 9.2 -32.7°
Drops below altitude 10° 09:42:01 10° 158° (SSE) 2,558 10.4 -32.2°
Sets 09:44:28 0° 157° (SSE) 3,480 11.2 -31.7°
